TimeAKST,TemperatureF,Dew PointF,Humidity,Sea Level PressureIn,VisibilityMPH,Wind Direction,Wind SpeedMPH,Gust SpeedMPH,PrecipitationIn,Events,Conditions,WindDirDegrees,DateUTC
12:28 AM,24.8,23.0,93,29.90,10.0,Variable,4.6,-,N/A,,Scattered Clouds,0,2013-11-11 09:28:00
12:58 AM,24.6,22.5,91,29.95,10.0,Variable,4.6,-,N/A,,Clear,0,2013-11-11 09:58:00
1:58 AM,22.6,19.6,88,29.96,10.0,Variable,1.2,-,N/A,,Clear,0,2013-11-11 10:58:00
2:58 AM,23.4,20.8,90,29.99,10.0,Variable,4.6,-,N/A,,Clear,0,2013-11-11 11:58:00
3:58 AM,22.8,19.9,89,30.01,10.0,Variable,3.5,-,N/A,,Mostly Cloudy,0,2013-11-11 12:58:00
4:58 AM,19.2,16.9,91,30.04,10.0,SSW,2.3,-,N/A,,Scattered Clouds,200,2013-11-11 13:58:00
5:43 AM,17.6,15.8,93,30.02,10.0,Variable,2.3,-,N/A,,Mostly Cloudy,0,2013-11-11 14:43:00
5:58 AM,18.0,15.6,91,30.07,10.0,Variable,3.5,-,N/A,,Mostly Cloudy,0,2013-11-11 14:58:00
6:58 AM,20.8,18.1,89,30.09,10.0,Variable,5.8,-,N/A,,Overcast,0,2013-11-11 15:58:00
7:58 AM,21.7,18.5,87,30.12,10.0,Variable,2.3,-,N/A,,Overcast,0,2013-11-11 16:58:00
8:43 AM,21.2,17.6,86,30.11,10.0,West,4.6,-,N/A,,Scattered Clouds,260,2013-11-11 17:43:00
8:58 AM,20.3,17.1,87,30.16,10.0,West,2.3,-,N/A,,Partly Cloudy,260,2013-11-11 17:58:00
9:58 AM,18.9,16.2,89,30.19,10.0,Variable,2.3,-,N/A,,Clear,0,2013-11-11 18:58:00
10:58 AM,14.7,12.4,90,30.21,10.0,Calm,Calm,-,N/A,,Clear,0,2013-11-11 19:58:00
11:58 AM,14.0,11.7,90,30.23,10.0,Calm,Calm,-,N/A,,Clear,0,2013-11-11 20:58:00
12:58 PM,16.2,13.6,90,30.24,10.0,Calm,Calm,-,N/A,,Scattered Clouds,0,2013-11-11 21:58:00
1:58 PM,15.8,13.3,90,30.25,10.0,Variable,1.2,-,N/A,,Clear,0,2013-11-11 22:58:00
2:43 PM,10.4,6.8,85,30.22,3.0,East,3.5,-,N/A,,Clear,80,2013-11-11 23:43:00
2:58 PM,11.8,9.1,89,30.26,9.0,Variable,3.5,-,N/A,,Clear,0,2013-11-11 23:58:00
3:58 PM,7.7,3.7,84,30.29,9.0,Calm,Calm,-,N/A,,Clear,0,2013-11-12 00:58:00
4:28 PM,6.8,3.2,85,30.24,7.0,SE,2.3,-,N/A,,Clear,140,2013-11-12 01:28:00
4:43 PM,6.8,1.4,79,30.25,9.0,Variable,4.6,-,N/A,,Clear,0,2013-11-12 01:43:00
4:58 PM,5.9,2.3,85,30.30,10.0,SW,1.2,-,N/A,,Clear,230,2013-11-12 01:58:00
5:13 PM,1.4,-4.0,78,30.25,9.0,Variable,5.8,-,N/A,,Clear,0,2013-11-12 02:13:00
5:28 PM,-2.2,-7.6,78,30.26,10.0,Variable,4.6,-,N/A,,Clear,0,2013-11-12 02:28:00
5:43 PM,-0.4,-5.8,78,30.26,7.0,NE,1.2,-,N/A,,Clear,40,2013-11-12 02:43:00
5:58 PM,-1.7,-6.2,81,30.31,10.0,Variable,3.5,-,N/A,,Clear,0,2013-11-12 02:58:00
6:13 PM,-4.0,-9.4,78,30.26,3.0,Variable,2.3,-,N/A,,Haze,0,2013-11-12 03:13:00
6:28 PM,-2.2,-7.6,78,30.26,10.0,SSE,8.1,-,N/A,,Clear,160,2013-11-12 03:28:00
6:43 PM,3.2,-0.4,85,30.27,8.0,Variable,5.8,-,N/A,,Clear,0,2013-11-12 03:43:00
6:58 PM,0.3,-3.5,84,30.32,10.0,Variable,5.8,-,N/A,,Clear,0,2013-11-12 03:58:00
7:58 PM,2.1,-2.0,83,30.32,10.0,Variable,5.8,-,N/A,,Mostly Cloudy,0,2013-11-12 04:58:00
8:58 PM,5.0,1.2,84,30.33,10.0,Variable,4.6,-,N/A,,Overcast,0,2013-11-12 05:58:00
9:58 PM,7.2,3.6,85,30.33,10.0,Variable,5.8,-,N/A,,Overcast,0,2013-11-12 06:58:00
10:58 PM,8.2,4.8,86,30.34,10.0,Variable,5.8,-,N/A,,Overcast,0,2013-11-12 07:58:00
11:58 PM,9.3,6.1,87,30.34,10.0,Calm,Calm,-,0.00,,Light Freezing Drizzle,0,2013-11-12 08:58:00